GPS BIIR-08 1 27663U 03005A 26236.92564483 .00000035 00000+0 00000+0 0 9998 2 27663 54.8730 212.2390 0149503 53.4372 317.9937 2.00556901172690 GPS BIIR-11 1 28190U 04009A 26235.20461462 .00000024 00000+0 00000+0 0 9990 2 28190 54.7772 272.9743 0118233 175.9321 184.6696 2.00552466164296 GPS BIIR-13 1 28474U 04045A 26237.10316825 -.00000074 00000+0 00000+0 0 9994 2 28474 55.0910 322.1184 0171248 318.0774 39.0116 2.00559067159808 GPS BIIR-14M 1 28874U 05038A 26237.15426346 .00000033 00000+0 00000+0 0 9990 2 28874 54.8256 270.3886 0128671 297.0746 62.2797 2.00561053153223 METEOSAT-9 (MSG-2) 1 28912U 05049B 26237.12661463 .00000122 00000+0 00000+0 0 9992 2 28912 9.5127 53.4653 0002727 11.6669 359.6787 1.00278870 7691 GPS BIIR-16M 1 29601U 06052A 26236.72474147 .00000035 00000+0 00000+0 0 9992 2 29601 54.9275 211.2906 0085067 91.0983 269.8600 2.00561924144783 GPS BIIR-17M 1 32260U 07047A 26236.53343635 -.00000001 00000+0 00000+0 0 9992 2 32260 54.1487 77.2493 0168783 88.9645 273.0508 2.00552409138182 GPS BIIR-18M 1 32384U 07062A 26236.60007241 .00000031 00000+0 00000+0 0 9996 2 32384 54.9806 271.3972 0036104 169.5231 7.9001 2.00563973136884 GOES 14 1 35491U 09033A 26237.18636387 -.00000257 00000+0 00000+0 0 9992 2 35491 1.8612 82.1282 0002249 69.3690 346.9137 1.00077519 7285 GOES 15 1 36411U 10008A 26237.20140830 .00000018 00000+0 00000+0 0 9999 2 36411 1.4623 82.0152 0005636 68.2318 319.1044 1.00274483 60332 GSAT0101 (GALILEO-PFM) 1 37846U 11060A 26234.13250919 -.00000102 00000+0 00000+0 0 9995 2 37846 56.9685 339.9743 0001135 73.2938 286.7393 1.70475833 92242 GSAT0102 (GALILEO-FM2) 1 37847U 11060B 26236.41471498 -.00000094 00000+0 00000+0 0 9996 2 37847 56.9679 339.9129 0001729 335.7252 30.6337 1.70476157 92297 LUCH 5A 1 37951U 11074B 26235.36857075 -.00000054 00000+0 00000+0 0 9995 2 37951 8.9181 72.8068 0003515 101.7399 96.7549 1.00271362 53728 METEOSAT-10 (MSG-3) 1 38552U 12035B 26237.18892823 -.00000008 00000+0 00000+0 0 9992 2 38552 4.8296 60.6391 0001060 81.4771 259.6192 1.00267935 51546 SARSAT 13 (METOP-B) 1 38771U 12049A 26237.31320885 .00000079 00000+0 55738-4 0 9999 2 38771 98.6451 287.4142 0003171 129.8415 230.3042 14.21455040723081 GPS BIIF-3 1 38833U 12053A 26237.11892174 -.00000019 00000+0 00000+0 0 9998 2 38833 53.5937 140.7740 0184328 66.9656 295.0012 2.00556752100828 GSAT0103 (GALILEO-FM3) 1 38857U 12055A 26235.93331889 -.00000002 00000+0 00000+0 0 9997 2 38857 55.8464 99.6852 0002662 307.3374 52.7298 1.70473609 86168 GPS BIIF-4 1 39166U 13023A 26236.98707029 .00000038 00000+0 00000+0 0 9994 2 39166 54.4549 266.1660 0141798 51.1237 310.2036 2.00563355 97262 INSAT-3D 1 39216U 13038B 26237.21449502 -.00000342 00000+0 00000+0 0 9991 2 39216 2.0973 81.6207 0001384 88.9170 9.6768 1.00270350 47776 GPS BIIF-5 1 39533U 14008A 26236.98887494 -.00000022 00000+0 00000+0 0 9995 2 39533 53.6605 146.5125 0083767 231.6217 127.6472 2.00564347 91063 LUCH 5V 1 39727U 14023A 26237.12594539 -.00000270 00000+0 00000+0 0 9994 2 39727 5.2987 68.9983 0002672 112.4501 291.9857 1.00269067 45051 GPS BIIF-6 1 39741U 14026A 26237.26665606 -.00000081 00000+0 00000+0 0 9992 2 39741 56.4595 328.8274 0038776 324.5633 35.2239 2.00556124 89928 GPS BIIF-7 1 40105U 14045A 26235.86147510 -.00000003 00000+0 00000+0 0 9996 2 40105 55.3999 85.7686 0035860 119.2710 241.1709 2.00563160 87434 GSAT0201 (GALILEO 5) 1 40128U 14050A 26235.25108890 .00000013 00000+0 00000+0 0 9998 2 40128 48.8044 270.6800 1683716 181.9908 177.2856 1.85519885 79569 GSAT0202 (GALILEO 6) 1 40129U 14050B 26237.12333744 .00000019 00000+0 00000+0 0 9991 2 40129 48.8195 269.6892 1685310 182.7791 176.1913 1.85520539 81762 GPS BIIF-8 1 40294U 14068A 26235.73142701 -.00000059 00000+0 00000+0 0 9994 2 40294 57.0329 28.3576 0067347 73.4455 287.3109 2.00556001 86567 GLONASS-K 2 1 40315U 14075A 26236.81248716 .00000010 00000+0 00000+0 0 9995 2 40315 63.6184 187.9971 0022453 211.6073 148.2370 2.13101561 91310 GPS BIIF-9 1 40534U 15013A 26235.86868390 .00000022 00000+0 00000+0 0 9994 2 40534 53.1614 201.3798 0111734 40.6436 320.1595 2.00572087 83184 GSAT0203 (GALILEO 7) 1 40544U 15017A 26216.31258824 -.00000079 00000+0 00000+0 0 9996 2 40544 56.7688 340.2856 0003309 250.5677 109.4094 1.70476292 70028 GSAT0204 (GALILEO 8) 1 40545U 15017B 26236.51238516 -.00000093 00000+0 00000+0 0 9993 2 40545 56.7662 339.7537 0004271 237.8710 122.1120 1.70475954 33413 GPS BIIF-10 1 40730U 15033A 26237.02784517 .00000039 00000+0 00000+0 0 9990 2 40730 53.9336 264.2435 0116405 30.4007 330.3375 2.00552779 81372 METEOSAT-11 (MSG-4) 1 40732U 15034A 26237.19074824 .00000059 00000+0 00000+0 0 9996 2 40732 3.3693 70.6242 0000743 52.3041 288.5893 1.00266592 7902 GSAT0206 (GALILEO 10) 1 40890U 15045B 26217.73024005 .00000086 00000+0 00000+0 0 9997 2 40890 54.9350 220.2359 0002187 332.8300 27.1792 1.70473355 67881 GPS BIIF-11 1 41019U 15062A 26236.58195723 -.00000058 00000+0 00000+0 0 9990 2 41019 57.0046 28.1814 0114759 230.8830 128.1086 2.00567296 79205 ELEKTRO-L 2 1 41105U 15074A 26237.30775299 -.00000120 00000+0 00000+0 0 9992 2 41105 6.8623 69.6498 0001088 189.4182 170.8032 1.00271512 39192 GSAT0209 (GALILEO 12) 1 41174U 15079A 26236.66958300 .00000004 00000+0 00000+0 0 9997 2 41174 55.8686 99.3820 0003942 14.5976 345.5097 1.70473864 65945 GSAT0208 (GALILEO 11) 1 41175U 15079B 26236.88994348 .00000005 00000+0 00000+0 0 9995 2 41175 55.8670 99.3728 0003616 12.4836 347.6225 1.70473721 66361 GPS BIIF-12 1 41328U 16007A 26235.67440888 -.00000004 00000+0 00000+0 0 9998 2 41328 55.5685 86.7836 0097068 247.3476 111.7037 2.00574118 77197 GSAT0211 (GALILEO 14) 1 41549U 16030A 26236.42663697 .00000055 00000+0 00000+0 0 9993 2 41549 55.0810 219.8179 0003728 326.2047 33.7589 1.70473380 63833 GSAT0210 (GALILEO 13) 1 41550U 16030B 26217.32658418 .00000085 00000+0 00000+0 0 9991 2 41550 55.0845 220.3409 0004656 249.3443 110.6257 1.70473686 63502 INSAT-3DR 1 41752U 16054A 26237.13224800 -.00000080 00000+0 00000+0 0 9992 2 41752 0.0711 94.0793 0010953 170.9888 189.9532 1.00272448 36511 GSAT0207 (GALILEO 15) 1 41859U 16069A 26236.96278589 .00000005 00000+0 00000+0 0 9995 2 41859 55.5407 99.1817 0003414 354.2592 5.8342 1.70473854 60571 GSAT0212 (GALILEO 16) 1 41860U 16069B 26233.88319168 -.00000018 00000+0 00000+0 0 9999 2 41860 55.5362 99.2620 0004059 29.3795 330.7248 1.70474001 60779 GSAT0213 (GALILEO 17) 1 41861U 16069C 26236.01002166 -.00000002 00000+0 00000+0 0 9998 2 41861 55.5397 99.2111 0002988 326.9782 33.0950 1.70474470 60676 GSAT0214 (GALILEO 18) 1 41862U 16069D 26236.74299643 .00000003 00000+0 00000+0 0 9997 2 41862 55.5388 99.1834 0002009 358.1166 1.9787 1.70473996 60815 GOES 16 1 41866U 16071A 26237.26711253 -.00000094 00000+0 00000+0 0 9999 2 41866 0.5032 84.9654 0001330 107.4133 132.5994 1.00273103 35793 GSAT-17 1 42815U 17040B 26236.99354000 -.00000261 00000+0 00000+0 0 9999 2 42815 0.0584 270.5534 0002908 345.2915 168.6156 1.00273006 33472 GSAT0215 (GALILEO 19) 1 43055U 17079A 26236.05892154 .00000055 00000+0 00000+0 0 9992 2 43055 55.0591 219.6390 0003620 276.1124 83.8349 1.70474128 54141 GSAT0216 (GALILEO 20) 1 43056U 17079B 26210.54048316 .00000080 00000+0 00000+0 0 9990 2 43056 55.0654 220.3407 0004991 279.6092 80.3696 1.70474452 53724 GSAT0217 (GALILEO 21) 1 43057U 17079C 26214.28075665 .00000078 00000+0 00000+0 0 9990 2 43057 55.0626 220.2355 0004258 291.9902 67.9813 1.70474265 53777 GSAT0218 (GALILEO 22) 1 43058U 17079D 26216.26058223 .00000082 00000+0 00000+0 0 9997 2 43058 55.0625 220.1786 0005474 276.8699 83.0848 1.70474225 53830 GOES 17 1 43226U 18022A 26237.26155740 -.00000186 00000+0 00000+0 0 9994 2 43226 1.1082 84.5901 0000810 94.8946 158.7202 1.00272384 31115 GSAT0221 (GALILEO 25) 1 43564U 18060A 26236.10865921 -.00000095 00000+0 00000+0 0 9991 2 43564 57.1427 339.9478 0003211 269.8007 90.1858 1.70476479 50328 GSAT0222 (GALILEO 26) 1 43565U 18060B 26232.80890761 -.00000106 00000+0 00000+0 0 9998 2 43565 57.1476 340.0406 0004141 237.8280 122.1518 1.70476164 50317 GSAT0219 (GALILEO 23) 1 43566U 18060C 26235.37604772 -.00000098 00000+0 00000+0 0 9999 2 43566 57.1457 339.9727 0002427 278.2241 81.7704 1.70476547 50335 GSAT0220 (GALILEO 24) 1 43567U 18060D 26233.25075317 -.00000105 00000+0 00000+0 0 9991 2 43567 57.1463 340.0300 0003732 269.5675 90.4099 1.70476382 50282 BEIDOU-3 M13 1 43622U 18072A 26236.19224292 -.00000009 00000+0 00000+0 0 9993 2 43622 56.6871 60.4173 0004665 333.1947 26.8418 1.86231257 53927 BEIDOU-3 M14 1 43623U 18072B 26236.59461755 -.00000007 00000+0 00000+0 0 9993 2 43623 56.6889 60.3988 0004311 22.7118 337.3682 1.86231344 53929 GPS BIII-1 1 43873U 18109A 26237.07128115 .00000011 00000+0 00000+0 0 9999 2 43873 55.7253 89.4686 0039659 196.3531 345.0796 2.00564684 56454 METEOR-M2 2 1 44387U 19038A 26237.22600975 .00000446 00000+0 21252-3 0 9996 2 44387 98.9211 225.5512 0001576 132.6439 227.4872 14.24382704371128 GPS BIII-2 1 44506U 19056A 26236.49761289 -.00000086 00000+0 00000+0 0 9998 2 44506 55.5991 328.4272 0065163 199.3055 193.1416 2.00571124 51447 BEIDOU-3 M24 1 44542U 19061A 26236.97257808 -.00000007 00000+0 00000+0 0 9997 2 44542 54.3959 180.4090 0009075 7.2849 352.6965 1.86229461 47072 BEIDOU-3 M23 1 44543U 19061B 26237.24184972 -.00000007 00000+0 00000+0 0 9990 2 44543 54.3947 180.3686 0006015 354.4522 97.2175 1.86227521 47087 BEIDOU-3 M22 1 44793U 19078A 26236.27648214 -.00000031 00000+0 00000+0 0 9998 2 44793 53.8705 297.4274 0005066 46.0884 314.0310 1.86227578 45916 BEIDOU-3 M21 1 44794U 19078B 26235.34230932 -.00000037 00000+0 00000+0 0 9996 2 44794 53.8449 297.4202 0002887 39.0074 321.0876 1.86227958 45900 ELEKTRO-L 3 1 44903U 19095A 26237.13259466 -.00000099 00000+0 00000+0 0 9997 2 44903 0.4283 82.5436 0001620 43.0383 331.5130 1.00271797 24407 GPS BIII-3 1 45854U 20041A 26237.01795870 -.00000061 00000+0 00000+0 0 9996 2 45854 56.7136 26.2778 0067247 205.0351 138.2683 2.00557164 45415 COSMOS 2547 1 46805U 20075A 26235.98783704 .00000017 00000+0 00000+0 0 9997 2 46805 64.6019 190.2136 0008957 238.1108 121.7831 2.13099960 45354 GPS BIII-4 1 46826U 20078A 26237.18871971 .00000027 00000+0 00000+0 0 9992 2 46826 53.9723 207.9816 0075657 208.2637 237.2350 2.00565261 42890 GSAT0223 (GALILEO 27) 1 49809U 21116A 26235.46285670 -.00000097 00000+0 00000+0 0 9992 2 49809 57.1342 339.8594 0003657 213.9102 154.5820 1.70476614 29332 GSAT0224 (GALILEO 28) 1 49810U 21116B 26232.92061010 -.00000106 00000+0 00000+0 0 9993 2 49810 57.1362 339.9266 0002686 202.4662 158.4294 1.70476718 29319 GOES 18 1 51850U 22021A 26237.20896639 .00000094 00000+0 00000+0 0 9990 2 51850 0.0178 301.9286 0000391 248.8900 80.8863 1.00271934 7287 COSMOS 2557 (706K) 1 52984U 22075A 26237.09018655 -.00000038 00000+0 00000+0 0 9998 2 52984 64.2532 312.0561 0011862 269.2726 90.6600 2.13102538 32182 METEOSAT-12 (MTG-I1) 1 54743U 22170C 26237.18875490 -.00000009 00000+0 00000+0 0 9995 2 54743 0.7719 25.8984 0003831 86.4209 288.7834 1.00275855 13679 METEOR-M2 3 1 57166U 23091A 26237.30668326 -.00000002 00000+0 18049-4 0 9992 2 57166 98.6029 290.8504 0003447 346.5456 13.5631 14.24051350164353 COSMOS 2569 (703K) 1 57517U 23114A 26235.35731569 .00000021 00000+0 00000+0 0 9994 2 57517 65.3436 70.3568 0008639 291.2812 68.6978 2.13102572 23691 METEOR-M2 4 1 59051U 24039A 26237.25909758 .00000002 00000+0 20730-4 0 9990 2 59051 98.7081 195.7091 0006660 339.6264 20.4647 14.22435674129089 GSAT0225 (GALILEO 29) 1 59598U 24079A 26237.27015131 .00000007 00000+0 00000+0 0 9993 2 59598 55.1619 99.1485 0000963 112.1873 31.2844 1.70474318 14497 GSAT0227 (GALILEO 30) 1 59600U 24079C 26216.10294359 -.00000002 00000+0 00000+0 0 9993 2 59600 55.1430 99.7387 0003345 77.4683 282.6443 1.70473896 14181 GSAT0232 (GALILEO 32) 1 61182U 24167A 26236.49698722 .00000055 00000+0 00000+0 0 9992 2 61182 55.1713 219.4399 0006061 235.0144 257.0250 1.70473927 12049 GSAT0226 (GALILEO 31) 1 61183U 24167B 26236.44969462 .00000055 00000+0 00000+0 0 9990 2 61183 55.1702 219.4483 0002849 244.3540 309.9920 1.70473916 12011 GSAT0233 (GALILEO 33) 1 67160U 25302A 26226.59250941 -.00000018 00000+0 00000+0 0 9993 2 67160 54.3710 100.4657 0001942 137.9447 223.3725 1.70473974 4129 GSAT0234 (GALILEO 34) 1 67162U 25302C 26215.45009963 .00000000 00000+0 00000+0 0 9994 2 67162 54.3663 100.7834 0001414 16.7747 166.2653 1.70474035 3986